This demonstration page uses our WeatherBlox Daily Observations layout. Learn more.

Left ArrowRight Arrow

30.21309, -93.2044

Hourly Observations for July 8, 2022

Temp ( °F °C ) Dew Point ( °F °C ) Humidity (%) Winds ( mph kmh ) Pressure ( in mb ) Visibility ( mi km ) Precip ( " mm )
12:15 am 00:15 Clear 81 27.1 76 24.4 85 85 Calm 30.00 1016 10 16 0.00 0.00
12:35 am 00:35 Clear 77 25.1 75 23.7 92 92 S 3 6 30.00 1016 10 16 0.00 0.00
12:55 am 00:55 Clear 77 25.1 75 24 94 94 SSE 6 9 30.00 1016 10 16 0.00 0.00
1:15 am 01:15 Clear 77 25 75 24 94 94 SSE 3 6 30.00 1016 10 16 0.00 0.00
1:35 am 01:35 Clear 77 24.9 75 23.8 94 94 Calm 30.00 1016 10 16 0.00 0.00
1:55 am 01:55 Clear 77 25 75 24 94 94 S 3 6 30.00 1016 10 16 0.00 0.00
2:15 am 02:15 Clear 77 25 75 23.9 94 94 S 3 6 30.00 1016 10 16 0.00 0.00
2:35 am 02:35 Clear 77 25.1 75 24 94 94 Calm 30.00 1016 10 16 0.00 0.00
2:55 am 02:55 Clear 77 25 75 23.8 93 93 Calm 29.99 1016 10 16 0.00 0.00
3:15 am 03:15 Clear 77 25.1 75 23.9 93 93 Calm 30.00 1016 10 16 0.00 0.00
3:35 am 03:35 Clear 78 25.8 76 24.2 91 91 Calm 30.00 1016 10 16 0.00 0.00
3:55 am 03:55 Clear 77 24.8 75 23.7 94 94 Calm 30.00 1016 10 16 0.00 0.00
4:15 am 04:15 Clear 77 24.8 75 23.8 94 94 Calm 30.00 1016 7 11 0.00 0.00
4:35 am 04:35 Clear 77 24.8 75 23.9 95 95 Calm 30.01 1016 7 11 0.00 0.00
4:55 am 04:55 Clear 77 25.1 75 24 94 94 Calm 30.01 1016 10 16 0.00 0.00
5:15 am 05:15 Clear with Mist and Fog 76 24.6 74 23.5 94 94 Calm 30.01 1016 7 11 0.00 0.00
5:35 am 05:35 Clear with Mist and Fog 76 24.2 74 23.3 95 95 Calm 30.02 1017 7 11 0.00 0.00
6:00 am 06:00 Mostly Clear 75 24 73 23 94 94 Calm 30.02 1017 10 16 0.00 0.00
6:50 am 06:50 Mostly Sunny 79 26 75 24 89 89 Calm 30.03 1017 10 16 0.00 0.00
7:50 am 07:50 Mostly Sunny 81 27 77 25 89 89 Calm 30.05 1018 10 16 0.00 0.00
8:50 am 08:50 Partly Cloudy 84 29 77 25 79 79 WSW 6 9 30.06 1018 10 16 0.00 0.00
9:51 am 09:51 Mostly Cloudy 88 31 75 24 66 66 W 8 13 30.07 1018 10 16 0.00 0.00
10:47 am 10:47 Partly Cloudy 90 32 75 24 63 63 SW 9 15 30.07 1018 10 16 0.00 0.00
11:50 am 11:50 Mostly Cloudy 90 32 75 24 63 63 VRB 5 7 30.07 1018 10 16 0.00 0.00
12:48 pm 12:48 Mostly Cloudy 93 34 75 24 56 56 WSW 8 13 30.06 1018 10 16 0.00 0.00
1:56 pm 13:56 Partly Cloudy 93 34 73 23 53 53 SW 6 9 30.03 1017 10 16 0.00 0.00
2:45 pm 14:45 Mostly Cloudy 93 34 75 24 56 56 Calm 30.02 1017 10 16 0.00 0.00
3:50 pm 15:50 Partly Cloudy 93 34 75 24 56 56 Calm 30.01 1016 10 16 0.00 0.00
4:45 pm 16:45 Partly Cloudy 93 34 73 23 53 53 Calm 30.01 1016 10 16 0.00 0.00
5:47 pm 17:47 Partly Cloudy 93 34 75 24 56 56 Calm 30.00 1016 10 16 0.00 0.00
6:51 pm 18:51 Mostly Sunny 91 33 73 23 56 56 SSW 13 20 29.99 1016 10 16 0.00 0.00
7:53 pm 19:53 Mostly Sunny 88 31 73 23 62 62 SSW 12 19 29.99 1016 10 16 0.00 0.00
8:54 pm 20:54 Mostly Clear 84 29 75 24 74 74 SSW 8 13 29.99 1016 10 16 0.00 0.00
9:54 pm 21:54 Mostly Clear 84 29 75 24 74 74 SSW 6 9 30.01 1016 10 16 0.00 0.00
10:15 pm 22:15 Clear 83 28.6 77 24.8 80 80 SSW 5 7 30.02 1017 10 16 0.00 0.00
10:35 pm 22:35 Clear 84 28.7 77 25 80 80 SSW 7 11 30.02 1017 10 16 0.00 0.00
10:55 pm 22:55 Clear 84 28.7 77 25 80 80 SSW 6 9 30.03 1017 10 16 0.00 0.00
11:15 pm 23:15 Clear 84 28.7 77 25.2 81 81 SW 5 7 30.04 1017 10 16 0.00 0.00
11:35 pm 23:35 Clear 84 28.8 78 25.3 81 81 SSW 6 9 30.04 1017 10 16 0.00 0.00
11:55 pm 23:55 Clear 84 28.9 78 25.4 81 81 SW 6 9 30.04 1017 10 16 0.00 0.00

Powered by AerisWeather